Back to catalog

FENGYUN 1C DEB

AliveSSO
NORAD 31157·DEBRIS·🇨🇳 China

Launched May 10, 1999 from Taiyuan Satellite Launch Center

Loading…

Next Passes (next 24 hours)

TLE

FreshSource: Space-Track

Epoch: Sep 12, 2026, 03:58 UTC

1 31157U 99025BHK 26255.16538631  .00000254  00000-0  12591-3 0  9997
2 31157  98.5055 233.9317 0098629 249.4333 109.6243 14.22862700  8602

Track FENGYUN 1C DEB in real time with AllMySat

Download on the App Store